Погода в Синглтоне

Австралия     32°33′28″S   151°10′21″E
темп.,
°C
ветер,
м/с
пор.,
м/с
влажн.,
%
обл.,
%
осадки,
мм/ч
давл.,
гПа
погр.,
м
16 мая, вс
вс1601:00+5зсз24700 0.0 102189
04:00+4сз23742 0.0 102158
07:00+3сз24750 0.0 1022105
10:00+11зсз34470 0.0 1023542
13:00+15з44370 0.0 10201013
16:00+14сз38420 0.0 1019481
19:00+10сз414440 0.0 1021379
22:00+7сз38580 0.0 1022222
17 мая, пн
пн1701:00+7сз511630 0.0 1022371
04:00+6зсз511670 0.0 1022371
07:00+6сз411690 0.0 1024328
10:00+12зсз46510 0.0 1025529
13:00+16з12450 0.0 1023952
16:00+15св11575 0.0 102334
19:00+9всв22790 0.0 102617
22:00+8всв01864 0.0 102811
18 мая, вт
вт1801:00+6зсз00925 0.0 102810
04:00+6сз119429 0.0 102810
07:00+5сз11951 0.0 103011
10:00+14юз11630 0.0 1029359
13:00+18вюв22480 0.0 10261277
16:00+16юв12620 0.0 102650
19:00+10в22850 0.0 102815
22:00+8ссв11940 0.0 102912
19 мая, ср
ср1901:00+7сз11950 0.0 102810
04:00+6сз11950 0.0 102910
07:00+6сз11950 0.0 103013
10:00+14з12630 0.0 1030390
13:00+19зюз11490 0.0 1027842
16:00+17юв11600 0.0 102616
19:00+11всв11800 0.0 102713
22:00+9с11910 0.0 102811
20 мая, чт
чт2001:00+8сз11941 0.0 102710
04:00+7сз1194100 0.0 102718
07:00+7сз229391 0.0 102736
10:00+15зсз355768 0.0 1027445
13:00+19зсз584470 0.0 10241215
16:00+18сз3850100 0.0 1023337
19:00+12сз22635 0.0 102533
22:00+10сз11745 0.0 102612